Regional Weather Roundup
Issued by NWS Upton, NY

Current Version | Previous Version | Graphics & Text | Print | Product List | Glossary Off
Versions: 1 2 3 4 5 6 7 8 9 10 11 12 13 14 15 16 17 18 19 20 21 22 23 24 25 26 27 28 29 30 31 32 33 34 35 36 37 38 39 40 41 42 43 44 45 46 47 48 49 50

317
ASUS41 KOKX 240008
RWROKX

Regional Weather Roundup
National Weather Service New York NY
700 PM EST TUE JAN 23 2018

Note: "FAIR" indicates few or no clouds below 12,000 feet with no
significant weather and/or obstructions to visibility.

NYZ071-072-176-178-NJZ106-104-240100-
New York City Metro Area

CITY           SKY/WX    TMP DP  RH WIND       PRES   REMARKS
Central Park   MOCLDY    52  37  56 W10G18    29.66R
Bronx Bot Gard   N/A     52  36  54 W15       29.65R
Bronx Lehman C NOT AVBL
LaGuardia Arpt MOCLDY    52  36  54 W16G24    29.63R
Queens College NOT AVBL
Kennedy Intl   MOCLDY    51  37  58 W14       29.65R
Breezy Point     N/A     46 N/A N/A W8G14       N/A
Brooklyn Coll  NOT AVBL
Staten Island  NOT AVBL
Newark/Liberty FAIR      52  37  56 W13       29.65R
Teterboro      FAIR      51  37  58 W10       29.63R
$$

NYZ177-179-078>081-240100-
Long Island New York

CITY           SKY/WX    TMP DP  RH WIND       PRES   REMARKS
Jones Beach      N/A     50 N/A N/A W12         N/A
Wantagh        NOT AVBL
Matinecock Pt    N/A     45 N/A N/A SW12        N/A
Farmingdale    CLOUDY    50  41  71 W6        29.63R
MacArthur/ISP  CLOUDY    53  44  71 W10       29.62R
Shirley        CLOUDY    51  49  92 NW8       29.62R
Mt Sinai Harb    N/A    N/A N/A N/A W5          N/A
Westhampton    CLOUDY    51  48  89 W12       29.62R
East Hampton   CLOUDY    50  47  91 W10G17    29.59R
Southold       NOT AVBL
Montauk          N/A     52  48  86 W10G20    29.58R
$$

NYZ052-065-067-240100-
Hudson Valley

CITY           SKY/WX    TMP DP  RH WIND       PRES   REMARKS
White Plains   MOCLDY    49  39  68 W6        29.60S
Larchmont Harb   N/A     50 N/A N/A SW8         N/A
Croton On Huds   N/A     46 N/A N/A CALM        N/A
Somers         NOT AVBL
Brewster       NOT AVBL
Newburgh       CLEAR     45  41  87 W7        29.61S
Montgomery     FAIR      39  36  89 SW7       29.59R WCI  34
Otisville      NOT AVBL
Warwick        NOT AVBL
Suffern        NOT AVBL
Poughkeepsie   FAIR      42  38  85 SW3       29.59S
Albany         MOCLDY    41  35  79 NW6       29.61R
$$

NJZ001-105-106-008-010-013-015-019>022-104-240100-
New Jersey

CITY           SKY/WX    TMP DP  RH WIND       PRES   REMARKS
Newark/Liberty FAIR      52  37  56 W13       29.65R
Teterboro      FAIR      51  37  58 W10       29.63R
Caldwell       FAIR      50  36  58 W10G17    29.66R
Somerville     FAIR      49  35  58 W13G23    29.67R
Linden         FAIR      51  38  61 W12       29.66R
Perth Amboy      N/A     50 N/A N/A W12         N/A
Sussex         NOT AVBL
Andover          N/A     45  33  63 SW8       29.67R
Trenton        FAIR      50  34  54 W13G23    29.69R
Millville      FAIR      50  36  58 W15G22    29.72R
Atlantic City  FAIR      49  44  83 W8        29.70R
Wrightstown    FAIR      49  40  70 NW10      29.67R
Toms River     FAIR      48  41  76 W7        29.69R
Belmar         MOCLDY    50  39  66 W10       29.68R
$$

PAZ047>061-062-071-240100-
Eastern Pennsylvania

CITY           SKY/WX    TMP DP  RH WIND       PRES   REMARKS
Philadelphia   FAIR      52  28  39 W14G23    29.72R
Allentown      FAIR      45  30  55 W13G18    29.71R
Scranton       FAIR      40  30  67 W10       29.68R WCI  33
$$

CTZ002-004>006-009-010-012-RIZ004-006-007-MAZ004-011-015-240100-
Southern New England

 In CT

CITY           SKY/WX    TMP DP  RH WIND       PRES   REMARKS
Bradley Intl   CLOUDY    38  38 100 E5        29.58S FOG     WCI  34
Hartford       FOG       38  38 100 E3        29.58R VSB 1/2
Danbury        CLOUDY    45  42  89 SW3       29.60F
Wtrbury/Oxford CLOUDY    45  41  86 W5        29.60S
Norwalk Harbor   N/A     48 N/A N/A W7          N/A
Bridgeport     CLOUDY    50  41  71 W7        29.60R
Meriden        CLOUDY    49  41  74 W6        29.58F
New Haven      CLOUDY    50  41  71 NW8       29.59R
Chester        FAIR      50  45  81 W13G23    29.58R
Groton         MOCLDY    49  46  90 W10       29.57R
Willimantic    RAIN      50  47  89 W10G22    29.58R

 In RI

CITY           SKY/WX    TMP DP  RH WIND       PRES   REMARKS
Providence     LGT RAIN  51  51 100 W12       29.53R
Block Island   CLOUDY    46  46 100 SW18G24   29.56R
Westerly       CLOUDY    47  47 100 SW5       29.57R

In MA

CITY           SKY/WX    TMP DP  RH WIND       PRES   REMARKS
Boston         DRIZZLE   39  38  96 W7        29.52R WCI  34
Worcester      LGT RAIN  42  40  92 W15       29.53R
Westfield      CLOUDY    36  36 100 CALM      29.56F
Provincetown   CLOUDY    47  47 100 MISG        N/A  FOG
Nantucket      FOG       47  47 100 S18       29.55F VSB 3/4
$$

ANZ330-335-338-340-345-350-353-355-240100-
Coastal Marine Observations


STATION/POSITION TIME  SKY/WX   TEMP    WIND        PRES    VSBY  WAVE
                                AIR SEA DIR/SP/G                  HT/PER
                 (UTC)          (F)     (DEG/KT/KT) (MB)    (MI)  (FT/S)
NY Harb Entrance 2250            47 40  290/ 17/ 21 1002.6          5/ 7
20 S Fire Island 2250            45 42  240/ 14/ 16 1002.2          6/ 7
15 E Barnegat Li 2330               42                N/A           6/ 7
Hudson Canyon    2250            53 49  230/ 17/ 21 1002.1          8/ 8
Kings Point      2330            50 35  300/  9/ 11 1004.2
Execution Rocks  NOT AVBL
Western LI Sound NOT AVBL
Central LI Sound 2330            40     260/ 12/ 16   N/A           1
Robbins Reef     2330            53     270/ 19/ 22 1003.9
$$


>>>>>>>>>>>>>>>>>>>>>>>>>>>> KEY <<<<<<<<<<<<<<<<<<<<<<<<<<<
>                                                          <
>     SKY/WX - Sky Condition/Present Weather               <
>     TMP    - Temperature in Fahrenheit                   <
>     DP     - Dew Point in Fahrenheit                     <
>     RH     - Relative Humidity in Percent                <
>     WIND   - Direction (from) and Speed in MPH           <
>     PRES   - Mean Sea Level Pressure (inches of Hg)      <
>     WCI    - Wind Chill Index                            <
>     VSB    - Visibility in Miles                         <
>     HX     - Heat Index                                  <
>     TC     - Temperature in Celsius                      <
>     VRB    - Varibale Wind Direction                     <
>                                                          <
>>>>>>>>>>>>>>>>>>>>>>>>>>>> KEY <<<<<<<<<<<<<<<<<<<<<<<<<<<




USA.gov is the U.S. government's official web portal to all federal, state and local government web resources and services.